Regional Weather Roundup
Issued by NWS Newport/Morehead, NC

Current Version | Previous Version | Graphics & Text | Print | Product List | Glossary On
Versions: 1 2 3 4 5 6 7 8 9 10 11 12 13 14 15 16 17 18 19 20 21 22 23 24 25 26 27 28 29 30 31 32 33 34 35 36 37 38 39 40 41 42 43 44 45 46 47 48 49 50
379 ASUS42 KMHX 260213 RWRMHX WEATHER ROUNDUP FOR EASTERN NORTH CAROLINA NATIONAL WEATHER SERVICE NEWPORT/MOREHEAD CITY NC 900 PM EST SUN FEB 25 2018 NOTE: "FAIR" INDICATES FEW OR NO CLOUDS BELOW 12,000 FEET WITH NO SIGNIFICANT WEATHER AND/OR OBSTRUCTIONS TO VISIBILITY NCZ015>017-031-032-045>047-102-103-260300- NORTH COAST CITY SKY/WX TMP DP RH WIND PRES REMARKS EDENTON CLOUDY 71 53 52 W5 30.07R ELIZABETH CITY LGT RAIN 70 56 61 W10 30.05R KITTY HAWK CLOUDY 68 65 93 CALM 30.04R MANTEO MOCLDY 66 62 89 W6 30.06R $$ NCZ045>047-081-094-103-104-260300- CENTRAL COAST CITY SKY/WX TMP DP RH WIND PRES REMARKS FRISCO MOCLDY 65 64 97 SW10 30.08R $$ NCZ095-097-098-100-101-260300- SOUTHERN COAST CITY SKY/WX TMP DP RH WIND PRES REMARKS BEAUFORT MOCLDY 61 59 93 SW5 30.09R CEDAR ISLAND NOT AVBL JACKSONVILLE CLOUDY 65 61 87 CALM 30.09R PINEY ISLAND NOT AVBL WILMINGTON MOCLDY 65 61 87 CALM 30.11R $$ NCZ011>013-027>030-043-044-078>080-089-090>093-098-260300- COASTAL PLAIN CITY SKY/WX TMP DP RH WIND PRES REMARKS AHOSKIE CLOUDY 64 51 63 CALM 30.05S CLINTON FAIR 61 55 79 CALM 30.10S ELIZABETHTOWN NOT AVBL GOLDSBORO MOCLDY 67 51 56 SW5 30.06F GREENVILLE FAIR 70 48 46 SW5 30.08F HAVELOCK NOT AVBL KENANSVILLE FAIR 61 52 72 CALM 30.10S KINSTON MOCLDY 66 50 55 S6 30.09R NEW BERN CLOUDY 67 56 67 SW5 30.10R RICHLANDS CLOUDY 67 53 61 CALM 30.10R ROCKY MOUNT FAIR 67 52 58 SW7 30.06F WASHINGTON CLOUDY 69 50 51 SW3 30.08R WHITEVILLE FAIR 63 53 70 CALM 30.11S $$ AMZ130-135-150-152-154-156-158-170-250-252-270-ANZ085-086-088-633-658-670-260300- MARINE OBSERVATIONS STATION/POSITION TIME TEMP WIND PRES WAVE SWELL AIR SEA DIR/SP/G HT/PER HT/PER (UTC) (F) (DEG/KT/KT) (MB) (FT/S) (FT/S) CHESAPEAKE LIGHT NOT AVBL 64 E VA BEACH 0150 55 50 220/ 12/ 14 1017.3 4/ 6 3/ 9 DUCK 0148 68 45 220/ 12/ 15 1016.8 2 E DUCK 0200 47 N/A 2/10 OREGON INLET 0136 64 65 210/ 11/ 13 1017.7 13E OREGON INLT 0148 48 N/A 4/ 9 3/ 9 HATTERAS CG 0148 64 62 230/ 10/ 14 1018.3 DIAMOND BUOY 0200 72 220/ 19/ 23 N/A CAPE LOOKOUT 0200 230/ 10/ 12 1019.2 BEAUFORT LAB 0148 61 61 210/ 3/ 4 1019.2 30 SE NEW RVR IN 0108 69 70 230/ 16/ 19 1019.2 30 SE NEW RVR IN 0200 70 N/A 5/ 6 2/11 27 SE WRIGHTSVLE 0108 68 69 250/ 10/ 14 1019.5 5 SE WRIGHTSVLE 0108 60 55 230/ 4/ 10 1019.0 225 S CAPE HAT 0150 72 72 210/ 14/ 16 1023.0 5/ 5 3/ 8 41 SE CHARLESTON 0200 70 250/ 8/ 10 1021.1 $$

USA.gov is the U.S. government's official web portal to all federal, state and local government web resources and services.